Location: St. Louis
(38.6270°N, 90.1994°W)
Time: 08:25:58
(UTC-06:00)

Transit 2A - Pass Details

Date: 02 December 2021
Orbit: 591 x 967 km, 66.7° (Epoch: 20 January)

Event Time Altitude Azimuth Distance (km) Brightness Sun altitude
Rises 09:12:45 0° 333° (NNW) 3,661 8.9 19.0°
Reaches altitude 10° 09:15:23 10° 335° (NNW) 2,709 8.3 19.3°
Maximum altitude 09:21:46 71° 60° (ENE) 994 7.0 20.0°
Drops below altitude 10° 09:27:48 10° 144° (SE) 2,568 11.1 20.7°
Sets 09:30:14 0° 147° (SSE) 3,458 11.0 21.0°
